Temp_Advection
nan nan nan nan nan nan nan nan nan nan nan nan nan nan nan nan nan nan nan nan nan nan nan nan nan nan nan nan nan nan nan nan nan nan nan nan nan nan nan nan nan nan nan nan nan
nan 0 -0 -0 -0 -0 0 -0 -0 0 0 0 0 0 0 0 0 -1 -0 0 0 0 0 0 0 -0 -0 -0 0 -0 -0 -0 -0 -0 -0 -0 -0 -0 -0 -0 -0 -0 0 0 nan
nan 0 0 -0 0 0 -0 -0 -0 0 0 0 0 0 0 0 -0 -1 0 0 0 0 0 0 0 -0 -0 -0 0 0 0 0 -0 -0 -0 -0 -0 -0 0 -0 -1 -0 -0 0 nan
nan 0 0 0 0 0 0 -0 -0 -0 0 0 0 0 0 -0 -0 -0 0 0 0 0 0 0 0 0 -0 0 0 -0 -0 -0 -0 -0 0 -0 -0 -0 -0 -0 -0 -0 -0 -0 nan
nan 0 -0 -0 0 0 0 -0 -0 -0 -0 0 0 0 -0 -1 -0 0 0 0 0 0 0 0 0 -0 0 -0 0 -0 -0 -0 -0 0 0 -0 0 -0 -0 -0 -0 -0 -0 -0 nan
nan 0 -0 -0 -0 0 0 0 0 0 0 0 0 0 -0 -1 0 0 0 0 0 -0 0 0 0 -0 -0 -0 -0 -0 -0 -0 -0 0 0 -0 -0 -0 -0 -0 0 -0 0 0 nan
nan 0 -0 0 0 -0 -0 0 0 0 0 0 0 -0 -1 -0 0 0 0 0 0 -0 -0 0 0 -0 0 0 0 -0 -0 -0 -0 0 0 -0 -0 -0 -1 0 0 -0 -0 -0 nan
nan -0 -0 0 0 0 0 0 0 0 0 0 0 -0 -0 0 0 0 0 -0 -0 0 0 0 0 0 -0 0 -0 -0 0 -0 0 -0 -0 0 -0 0 -0 0 0 -0 -0 -0 nan
nan -0 -0 -0 0 0 0 0 0 0 0 0 0 -0 -0 0 -0 -0 -0 -0 0 0 0 0 0 0 -0 -0 -0 0 -0 -0 -0 -0 -0 0 -0 -1 -0 0 -0 -0 0 0 nan
nan 0 -0 0 0 0 0 0 1 0 -0 0 -0 -0 -0 -0 0 0 0 0 0 0 0 0 0 0 0 -0 0 -0 -0 -1 -0 -0 0 0 -0 -1 -1 -0 -0 -0 -0 -0 nan
nan 0 0 0 -0 -0 0 0 0 -0 -0 0 -0 -0 -0 0 0 -0 0 0 0 0 0 -0 0 0 0 0 0 -0 0 -0 -1 -0 -0 -0 -1 -1 -1 -1 -0 -0 -0 -0 nan
nan 0 0 0 0 0 0 -0 0 0 0 0 -0 -0 -0 0 0 -0 0 0 0 -0 0 0 0 0 -0 -0 -0 -0 -0 -0 -0 -1 0 -0 -1 -2 -0 0 0 0 -0 -1 nan
nan 0 0 -0 0 0 -0 -0 -0 0 0 -0 0 0 0 0 -0 -0 -0 -0 -0 -0 -0 -0 0 0 -0 -0 0 -0 0 0 -0 -1 -0 -0 -1 0 0 0 0 -1 -2 -2 nan
nan 0 0 0 0 0 0 -0 -0 0 0 0 0 0 0 0 -0 0 0 0 0 -0 0 -0 0 -0 -0 -0 0 -0 0 -0 -0 -0 -0 0 -0 -0 0 0 -1 -3 -2 -1 nan
nan 0 0 0 0 0 0 0 0 -0 -0 -0 -0 0 0 0 0 0 0 0 -0 -0 0 0 -0 0 -0 0 -0 0 -0 -0 -0 0 -0 0 0 -1 0 -1 -1 -1 -1 -1 nan
nan 0 -0 0 0 0 -0 -0 0 -0 -0 -0 -0 0 -0 0 0 0 0 -0 -0 -0 0 0 -0 -0 -0 -0 -0 -0 -0 -0 -0 0 -0 0 -0 -0 -0 -0 -0 -0 -1 -0 nan
nan 0 0 -0 -0 -0 0 -0 -0 0 -0 0 -0 -0 0 -0 -0 -0 0 -0 -0 -0 -0 -0 0 0 0 -0 -0 -1 -0 -0 -0 -0 0 -0 -0 -1 0 -0 -0 -0 -0 0 nan
nan 0 0 0 0 0 -0 -0 0 0 -0 -0 -0 -0 0 -0 -0 -0 -0 -0 0 -0 -0 -0 -0 0 0 -0 -0 -0 0 -0 0 -0 0 0 -0 -1 0 -0 -0 -0 0 0 nan
nan -0 0 0 0 -0 -0 0 0 0 -0 -0 -0 0 0 -0 -0 -0 -0 0 -0 -0 0 -0 -0 -0 -0 -0 -0 -0 -0 -0 0 -0 -0 -0 -1 -0 -0 -0 -1 0 1 0 nan
nan 0 0 0 0 -0 -0 0 0 -0 -0 0 0 0 -0 -0 0 0 -0 -0 -0 -0 0 -0 -0 -0 -0 0 0 0 -0 0 -0 -0 -0 -0 0 0 0 -0 -0 -0 0 0 nan
nan 0 0 0 -0 0 -0 0 0 -0 -0 -0 0 -0 0 -0 0 -0 -0 -0 -0 -0 0 0 -0 -0 -0 -0 -0 -0 0 -0 0 -0 -0 -0 0 0 0 0 -0 -0 0 0 nan
nan -0 0 -0 0 -0 0 0 -0 -0 -0 -0 -0 -0 -0 0 0 -0 -0 -0 0 0 0 -0 0 -0 -0 0 0 -0 -0 -0 -0 -0 0 0 -0 -0 -0 -1 -1 0 0 0 nan
nan -0 0 -0 0 0 -0 0 -0 0 -0 -0 -0 0 -0 0 0 -0 -0 -0 0 0 -0 -0 0 -0 0 0 0 -0 -0 -0 0 0 0 -0 -0 -0 -0 0 0 -0 0 0 nan
nan -0 -0 -0 0 0 -0 -0 -0 0 -0 -0 -0 0 0 -0 -0 0 0 -0 0 0 0 -0 -0 0 -0 -0 0 -0 -0 0 0 0 0 -0 -1 -0 1 0 -1 0 -0 0 nan
nan -0 -0 -0 0 -0 -0 -0 0 -0 0 -0 0 -0 0 -0 -0 0 0 0 -0 0 0 0 -0 -0 -0 -0 0 0 -0 0 0 0 -0 -0 -0 -1 0 1 -1 -0 1 0 nan
nan -0 -0 0 0 0 -0 -0 -0 -0 0 0 -0 -0 0 0 -0 -0 -0 0 0 -0 0 0 0 -0 -1 -1 0 0 -0 -0 -0 -0 -0 0 -1 -1 -1 -0 1 0 0 0 nan
nan nan nan nan nan nan nan nan nan nan nan nan nan nan nan nan nan nan nan nan nan nan nan nan nan nan nan nan nan nan nan nan nan nan nan nan nan nan nan nan nan nan nan nan nan
Wind_Speed
10 4 6 7 15 6 18 16 13 13 17 24 32 30 28 24 13 9 16 10 5 7 8 4 5 6 6 3 2 2 2 4 4 4 5 6 5 3 4 10 8 3 3 2 5
8 6 9 11 22 22 18 13 14 17 23 29 31 29 27 23 10 23 12 8 9 9 5 3 4 7 4 3 1 3 2 5 5 6 5 6 1 8 5 10 11 12 12 11 13
9 9 12 13 10 18 16 16 17 21 26 30 29 24 15 7 9 15 10 9 7 10 4 4 4 3 4 6 2 3 2 5 6 6 6 5 7 9 8 7 16 14 12 9 8
14 16 14 21 22 20 17 17 20 23 27 27 24 14 15 5 5 10 9 13 12 11 5 3 3 3 3 4 3 3 1 3 4 3 2 7 10 11 14 20 18 20 20 19 20
27 25 19 23 21 20 18 19 21 21 24 22 15 10 9 13 12 8 12 12 10 10 8 5 3 3 2 4 1 4 4 4 6 8 9 13 14 13 18 22 20 22 22 23 24
24 19 21 21 19 18 19 19 20 19 20 15 9 10 3 9 8 9 9 9 10 8 10 7 4 5 7 4 5 5 6 9 9 8 9 11 14 10 8 4 6 10 15 19 20
21 21 16 21 21 20 19 19 19 19 16 17 17 14 21 12 7 7 10 10 8 8 7 6 4 2 3 4 1 2 5 7 10 4 3 8 10 8 13 7 8 11 14 17 20
23 21 19 19 19 22 22 20 19 18 19 15 13 5 9 9 9 7 5 8 9 6 4 5 7 4 3 0 4 4 4 3 3 5 6 5 6 5 5 3 12 15 16 19 21
18 18 19 21 21 22 21 19 17 14 11 10 11 7 6 8 9 9 6 5 5 6 6 4 4 2 2 2 3 4 3 3 3 5 2 3 7 8 17 29 25 23 23 22 22
18 17 19 22 21 21 21 25 26 13 8 8 7 6 7 5 7 9 6 5 3 4 1 2 2 2 1 5 1 4 4 6 5 1 7 9 16 13 22 21 22 22 22 18 15
20 18 17 17 21 20 9 5 5 9 26 15 12 15 7 6 9 10 9 5 3 1 3 3 2 4 7 6 4 3 2 6 9 4 6 7 15 16 22 22 15 11 13 12 17
16 13 12 13 11 4 7 7 12 10 12 13 11 11 8 7 3 16 11 5 4 4 1 1 5 6 3 2 3 5 6 8 6 8 9 9 20 20 6 7 6 2 9 22 27
12 12 9 3 2 13 14 18 13 6 4 5 7 7 5 9 6 12 11 5 6 5 5 3 6 2 2 4 3 4 5 6 5 12 9 9 7 7 4 10 6 11 27 29 29
5 6 8 10 8 12 13 8 4 4 2 7 6 6 5 4 2 7 9 4 2 5 4 3 3 3 3 5 3 2 7 7 8 8 4 8 4 2 5 5 7 27 30 29 30
4 5 2 3 6 6 6 5 1 2 4 6 4 6 6 6 7 4 8 1 5 5 3 2 1 3 4 3 5 2 8 7 5 3 5 2 2 7 6 8 13 19 25 29 30
9 7 4 6 4 3 1 5 3 2 3 3 3 5 4 6 3 7 2 2 1 3 4 2 1 3 4 4 3 6 4 3 2 1 2 6 2 5 3 5 9 16 23 28 30
10 9 5 4 3 1 3 3 3 5 3 1 1 3 3 4 3 4 3 5 3 3 2 1 4 3 1 3 1 8 2 0 0 1 3 4 2 7 6 7 6 13 22 29 30
8 9 7 4 3 2 3 2 5 2 3 2 1 5 2 6 3 5 4 3 7 4 2 3 3 0 2 2 1 3 2 1 3 3 3 2 5 5 7 8 8 15 22 27 28
7 10 10 5 3 3 1 4 3 3 3 3 2 5 2 3 3 4 5 2 3 5 3 3 2 2 2 1 3 1 2 1 2 1 1 4 6 5 4 5 12 15 18 21 24
3 4 8 4 4 2 1 2 2 2 3 1 1 1 1 1 3 1 1 1 1 2 2 2 4 4 4 2 2 1 3 2 3 3 4 4 4 4 4 6 7 9 13 18 21
4 1 5 3 3 2 2 3 3 3 2 3 3 2 3 2 0 2 0 1 2 2 2 0 3 1 4 6 6 4 2 3 1 1 1 4 5 6 5 5 7 12 17 18 24
5 1 7 3 3 2 2 2 1 5 2 1 3 3 3 2 1 2 2 4 3 0 3 3 3 4 5 4 3 4 5 4 3 0 2 1 6 8 9 8 10 11 16 19 23
3 3 6 2 1 2 1 2 2 2 2 1 1 1 1 3 2 4 4 6 5 3 3 2 3 4 1 1 2 4 4 4 3 2 6 2 6 4 7 5 8 10 16 15 19
3 3 4 3 2 3 2 3 3 2 3 2 3 1 4 6 5 2 2 4 4 4 1 1 4 6 5 3 3 5 5 7 7 3 3 9 10 13 7 9 16 12 11 13 16
4 2 2 3 3 3 1 2 2 3 4 3 3 5 3 3 4 5 2 2 8 3 3 3 5 7 11 14 14 16 16 12 13 12 7 3 5 13 15 13 12 15 10 11 14
3 1 2 2 2 4 3 5 4 2 3 4 4 4 5 5 5 4 6 2 6 5 2 2 4 7 13 14 10 10 12 13 17 18 20 21 25 22 32 13 16 10 7 11 14
5 4 1 3 3 3 0 1 3 1 5 8 5 6 6 6 8 8 8 9 11 4 6 5 2 5 5 9 12 10 10 19 11 8 15 16 19 12 7 8 10 14 10 10 12
Wind_Direction
81 87 142 188 208 191 150 155 152 145 134 124 115 110 105 94 101 98 55 21 58 105 84 70 98 111 115 101 67 341 287 257 347 44 87 85 14 101 313 293 292 271 299 348 252
50 81 133 159 191 153 149 140 137 133 132 129 124 118 112 108 43 51 34 54 101 86 62 113 132 143 119 124 127 254 259 41 39 42 17 26 343 327 321 313 264 252 266 267 282
55 98 103 133 188 137 127 131 131 131 135 136 131 125 112 90 67 15 44 58 85 62 66 96 144 175 138 150 154 163 273 56 73 52 12 324 299 268 268 261 252 270 289 278 276
84 88 91 134 121 115 119 124 129 134 139 139 136 101 59 68 73 6 50 51 49 39 37 58 157 194 150 173 131 279 317 359 358 41 325 296 305 279 267 253 268 282 284 279 273
86 64 116 116 106 109 114 121 129 134 137 137 129 91 76 69 54 13 35 58 32 42 59 66 92 15 180 89 210 243 360 354 303 297 286 284 276 270 273 268 268 273 275 275 275
86 85 88 95 100 105 110 116 126 129 131 127 98 98 89 78 42 22 48 47 61 51 68 76 77 16 58 56 319 23 331 288 287 285 289 290 292 291 254 245 265 274 278 281 277
91 91 98 97 101 106 112 117 121 122 120 113 94 78 80 80 32 51 34 40 63 75 55 59 87 297 148 153 270 296 300 270 230 240 324 349 280 211 262 258 281 284 281 283 281
88 91 89 96 102 106 106 105 106 110 116 97 82 80 74 79 67 48 44 34 34 46 61 81 96 85 23 173 217 235 202 276 141 158 125 66 260 41 98 316 282 286 282 284 284
81 86 95 98 100 100 97 92 88 92 97 69 62 78 76 47 42 25 40 21 14 20 42 38 54 93 204 313 262 179 253 264 59 109 53 188 290 281 308 301 289 288 291 294 293
87 93 99 101 101 97 92 88 71 54 34 58 41 49 45 28 30 20 351 19 4 334 347 10 212 206 271 58 141 6 347 351 337 330 297 302 280 286 292 291 293 297 298 301 308
87 97 101 102 112 107 82 38 60 31 56 64 60 86 77 17 43 14 17 12 342 35 15 17 273 72 47 34 18 332 254 269 279 322 349 285 294 288 288 288 290 43 14 349 332
83 85 99 115 123 15 15 84 101 126 76 65 68 67 57 31 350 12 20 8 347 52 236 261 73 52 37 17 355 327 298 291 303 9 344 300 297 284 285 86 77 140 2 355 343
70 67 70 116 81 71 102 111 118 106 122 58 48 40 22 17 33 6 16 346 1 38 6 7 60 69 344 328 308 305 296 318 346 347 284 335 282 122 134 115 179 8 5 355 343
52 59 73 84 79 88 88 98 121 36 104 8 18 15 4 346 74 17 16 16 168 24 360 16 71 340 352 302 2 338 21 358 354 7 308 19 280 311 162 134 24 7 358 346 338
23 22 69 142 121 85 80 37 46 27 65 343 14 357 351 32 330 17 17 45 22 359 291 67 244 291 292 39 355 272 6 333 72 338 332 225 65 267 147 22 8 359 349 342 334
59 55 100 115 154 155 333 7 93 52 44 352 335 7 22 39 33 352 343 28 353 286 194 279 95 295 13 339 355 329 330 27 93 283 298 209 151 295 55 30 350 349 345 340 331
60 51 78 129 197 210 360 32 22 78 144 335 301 355 204 11 45 18 347 46 40 12 15 315 181 137 265 281 122 27 324 289 107 263 239 16 35 247 92 63 15 352 340 338 333
52 53 60 81 110 96 46 24 57 325 104 174 13 14 61 360 90 342 314 81 60 16 304 12 303 114 182 5 345 23 63 63 267 332 296 287 235 252 107 63 16 7 349 338 336
53 51 37 50 88 68 40 52 29 50 86 102 98 52 38 98 12 18 9 53 39 20 25 353 258 158 242 70 113 129 260 39 248 191 301 222 256 275 52 335 10 354 335 328 337
41 70 22 45 47 39 47 83 81 53 77 272 322 248 179 61 45 1 26 343 98 67 314 125 295 194 130 142 183 237 116 212 203 315 302 281 242 226 295 316 319 309 307 323 339
88 76 356 10 44 12 86 62 115 127 355 324 354 272 285 100 5 358 71 299 275 129 289 347 159 227 131 202 174 177 212 238 192 207 238 310 275 197 219 236 258 277 292 312 331
62 4 352 67 52 304 61 41 47 140 165 281 303 313 313 14 280 190 212 208 177 349 277 104 308 268 240 104 16 167 202 238 134 154 254 200 272 198 214 229 243 281 305 318 319
29 1 14 70 61 123 172 111 319 172 217 230 263 214 349 278 288 207 184 155 177 215 339 95 244 302 142 103 146 226 222 222 249 175 221 186 258 196 228 201 310 300 309 312 317
66 7 354 19 40 328 163 171 181 223 287 254 287 241 268 250 199 293 274 131 172 240 168 300 270 237 224 239 333 250 240 211 206 232 272 236 284 270 294 302 310 293 302 304 318
46 74 326 321 52 33 344 14 231 206 227 231 236 234 281 288 262 207 161 231 168 169 222 236 272 269 271 277 276 269 262 246 226 217 208 249 272 281 296 296 275 296 289 309 319
18 39 330 289 304 272 144 196 231 182 245 205 235 314 220 235 290 309 334 276 238 160 209 175 274 307 289 263 246 264 251 240 233 238 244 256 271 275 277 261 280 280 302 309 317
4 15 16 168 183 284 115 120 226 82 237 266 285 304 268 271 301 302 310 303 287 209 202 204 303 335 275 340 308 283 249 227 220 216 221 242 252 269 290 290 318 311 304 302 311
Height
1472 1471 1471 1472 1475 1480 1484 1489 1491 1493 1496 1499 1503 1505 1507 1509 1512 1512 1511 1518 1516 1517 1518 1519 1520 1521 1523 1523 1524 1524 1526 1521 1516 1515 1525 1527 1529 1529 1530 1530 1529 1528 1528 1528 1527
1470 1473 1475 1476 1479 1481 1486 1490 1492 1494 1498 1501 1505 1507 1509 1510 1513 1512 1517 1515 1516 1517 1518 1521 1521 1522 1522 1524 1525 1524 1525 1523 1524 1525 1526 1528 1531 1531 1531 1528 1526 1527 1527 1527 1527
1473 1474 1474 1474 1479 1483 1489 1492 1494 1496 1501 1503 1507 1509 1511 1512 1513 1520 1519 1518 1518 1517 1519 1519 1521 1522 1523 1523 1525 1524 1523 1525 1525 1528 1529 1530 1531 1531 1530 1527 1525 1525 1525 1525 1526
1476 1475 1473 1478 1483 1489 1492 1495 1497 1500 1503 1507 1510 1513 1513 1512 1523 1524 1522 1521 1520 1519 1521 1521 1523 1523 1523 1523 1524 1527 1523 1526 1527 1528 1530 1531 1530 1528 1528 1524 1523 1523 1523 1522 1521
1480 1479 1483 1487 1490 1493 1496 1499 1502 1505 1507 1511 1514 1515 1515 1517 1526 1525 1524 1523 1524 1523 1522 1523 1523 1523 1522 1524 1526 1525 1523 1526 1528 1528 1529 1528 1527 1527 1522 1521 1521 1521 1521 1520 1519
1491 1495 1495 1493 1496 1498 1500 1504 1507 1509 1510 1514 1516 1517 1518 1522 1527 1526 1525 1525 1525 1525 1524 1525 1526 1525 1525 1526 1528 1527 1527 1526 1526 1527 1527 1527 1524 1524 1517 1517 1518 1518 1518 1517 1516
1496 1497 1499 1501 1502 1504 1506 1509 1510 1511 1513 1517 1519 1519 1519 1527 1529 1528 1528 1526 1525 1525 1526 1526 1527 1527 1528 1529 1530 1530 1530 1524 1522 1524 1526 1527 1519 1517 1513 1515 1516 1516 1515 1514 1513
1501 1502 1503 1504 1507 1509 1511 1512 1513 1515 1517 1520 1521 1520 1527 1530 1530 1531 1530 1529 1528 1527 1527 1527 1528 1528 1528 1531 1530 1529 1527 1527 1523 1524 1526 1528 1522 1512 1514 1514 1514 1512 1511 1510 1510
1509 1509 1509 1510 1512 1513 1515 1516 1517 1518 1520 1522 1522 1523 1531 1533 1532 1531 1530 1530 1530 1530 1528 1528 1529 1530 1531 1530 1530 1525 1531 1520 1520 1521 1524 1526 1523 1513 1511 1511 1508 1507 1506 1505 1504
1515 1515 1515 1516 1517 1518 1519 1520 1521 1522 1523 1523 1525 1528 1534 1537 1534 1533 1532 1531 1532 1531 1531 1531 1530 1529 1528 1539 1541 1534 1530 1527 1526 1521 1520 1521 1515 1510 1508 1506 1504 1502 1501 1500 1500
1521 1521 1521 1521 1521 1521 1522 1523 1526 1528 1527 1531 1536 1536 1537 1537 1536 1535 1533 1532 1532 1531 1532 1531 1532 1533 1532 1534 1535 1534 1535 1536 1529 1521 1523 1519 1514 1508 1502 1501 1501 1501 1501 1501 1500
1526 1527 1526 1526 1525 1524 1524 1525 1528 1534 1537 1538 1539 1539 1538 1537 1537 1536 1535 1535 1532 1533 1532 1534 1536 1535 1536 1536 1537 1536 1536 1533 1523 1523 1527 1519 1512 1500 1496 1498 1500 1501 1501 1500 1497
1531 1530 1529 1529 1528 1527 1526 1529 1532 1533 1536 1541 1540 1540 1540 1540 1540 1540 1538 1536 1536 1534 1536 1534 1537 1537 1538 1538 1537 1537 1537 1534 1537 1531 1522 1519 1504 1496 1497 1497 1498 1499 1500 1499 1497
1532 1532 1531 1531 1534 1532 1533 1534 1534 1534 1536 1545 1542 1543 1543 1541 1541 1541 1538 1540 1538 1539 1539 1537 1539 1538 1537 1538 1537 1546 1536 1536 1537 1542 1547 1531 1541 1499 1495 1496 1499 1498 1499 1499 1495
1533 1533 1533 1534 1534 1535 1537 1535 1534 1535 1546 1547 1544 1544 1543 1543 1545 1542 1540 1540 1540 1540 1541 1540 1537 1538 1535 1536 1538 1539 1536 1538 1543 1545 1548 1524 1547 1509 1493 1501 1503 1504 1503 1499 1495
1535 1534 1534 1535 1537 1537 1537 1535 1536 1539 1561 1552 1547 1545 1544 1542 1543 1542 1541 1540 1540 1540 1538 1538 1540 1539 1536 1538 1539 1538 1537 1540 1542 1543 1554 1525 1531 1518 1505 1508 1508 1506 1502 1498 1492
1536 1536 1536 1536 1538 1538 1538 1538 1542 1545 1551 1551 1549 1546 1547 1544 1543 1544 1543 1545 1547 1545 1545 1537 1537 1539 1540 1539 1539 1544 1543 1532 1538 1544 1535 1539 1542 1517 1503 1507 1507 1504 1501 1497 1491
1538 1538 1538 1538 1538 1539 1538 1540 1548 1540 1546 1548 1548 1549 1547 1547 1546 1547 1543 1547 1546 1547 1550 1549 1543 1540 1539 1539 1541 1543 1546 1537 1558 1540 1544 1540 1544 1512 1500 1502 1503 1501 1499 1495 1489
1539 1539 1540 1540 1539 1539 1540 1548 1544 1542 1544 1548 1548 1557 1545 1546 1550 1552 1547 1549 1549 1549 1553 1552 1541 1539 1539 1538 1542 1543 1548 1545 1549 1545 1550 1524 1510 1498 1496 1498 1495 1497 1497 1493 1486
1540 1540 1542 1541 1541 1540 1541 1543 1545 1546 1547 1548 1547 1545 1553 1548 1553 1549 1552 1548 1548 1550 1550 1552 1555 1536 1538 1540 1542 1542 1543 1541 1544 1535 1534 1509 1503 1503 1505 1500 1496 1495 1492 1488 1481
1540 1541 1542 1541 1541 1541 1545 1544 1545 1547 1548 1548 1546 1543 1541 1545 1548 1550 1553 1550 1549 1549 1549 1549 1553 1539 1539 1539 1535 1543 1538 1542 1541 1539 1542 1526 1504 1498 1499 1496 1495 1491 1487 1484 1479
1541 1542 1541 1541 1544 1542 1543 1544 1545 1546 1547 1548 1548 1546 1545 1544 1547 1550 1551 1549 1547 1549 1547 1548 1548 1547 1529 1526 1527 1531 1534 1528 1545 1532 1538 1534 1517 1486 1488 1489 1488 1486 1483 1480 1477
1544 1544 1543 1541 1544 1543 1546 1547 1546 1546 1545 1545 1545 1547 1546 1544 1547 1543 1545 1545 1546 1547 1546 1546 1547 1549 1534 1532 1529 1530 1526 1526 1527 1528 1537 1538 1508 1482 1485 1486 1485 1483 1480 1477 1474
1546 1548 1545 1543 1542 1541 1543 1544 1545 1547 1546 1546 1545 1545 1545 1542 1542 1543 1542 1544 1546 1547 1547 1548 1542 1539 1543 1525 1525 1525 1521 1522 1526 1530 1531 1513 1499 1480 1487 1487 1480 1479 1476 1474 1471
1546 1549 1549 1546 1545 1544 1544 1544 1544 1546 1547 1546 1543 1543 1542 1543 1538 1539 1540 1542 1544 1545 1546 1545 1544 1533 1527 1520 1518 1515 1514 1515 1520 1518 1526 1508 1503 1486 1483 1480 1475 1472 1471 1469 1467
1550 1548 1548 1548 1548 1546 1545 1543 1543 1543 1544 1542 1543 1539 1540 1542 1539 1541 1539 1538 1539 1544 1545 1543 1544 1534 1524 1510 1507 1508 1501 1500 1500 1501 1500 1497 1492 1481 1475 1472 1470 1469 1468 1467 1466
1550 1550 1549 1546 1546 1546 1542 1541 1542 1542 1541 1541 1542 1541 1540 1539 1538 1537 1536 1537 1536 1539 1542 1541 1542 1539 1534 1511 1510 1506 1482 1485 1486 1484 1486 1492 1475 1473 1471 1468 1466 1464 1464 1464 1462